Waarnemingen

Advertentie
Mijn weer
Falsterbo, Zweden (2616): temperatuur & dauwpunt: 20.09.2018 11:00:00 - 26.09.2018 11:00:00 (CEST)Falsterbo, Zweden (2616): windsnelheid: 20.09.2018 11:00:00 - 26.09.2018 11:00:00 (CEST)Falsterbo, Zweden (2616): windrichting: 20.09.2018 11:00:00 - 26.09.2018 11:00:00 (CEST)Falsterbo, Zweden (2616): luchtdruk: 20.09.2018 11:00:00 - 26.09.2018 11:00:00 (CEST)Falsterbo, Zweden (2616): zicht: 20.09.2018 11:00:00 - 26.09.2018 11:00:00 (CEST)
Datum & Tijd tt [°C] td [°C] ff [km/u] ff [kn] dd ppp [hPa] vv [km]
26.09.2018 11:00:00 - - - - - - -
26.09.2018 10:00:00 - - - - - - -
26.09.2018 09:00:00 - - - - - - -
26.09.2018 08:00:00 13,0 8,1 47 25 WZW 1026,1 23
26.09.2018 07:00:00 - - - - - - -
26.09.2018 06:00:00 - - - - - - -
26.09.2018 05:00:00 12,7 8,8 47 25 WZW 1028,6 35
26.09.2018 04:00:00 - - - - - - -
26.09.2018 03:00:00 - - - - - - -
26.09.2018 02:00:00 12,7 8,8 47 25 WZW 1031,4 60
26.09.2018 01:00:00 - - - - - - -
26.09.2018 00:00:00 - - - - - - -
25.09.2018 23:00:00 12,5 7,6 32 18 W 1033,4 65
25.09.2018 22:00:00 - - - - - - -
25.09.2018 21:00:00 - - - - - - -
25.09.2018 20:00:00 12,6 6,2 94 51 N 1033,9 65
25.09.2018 19:00:00 - - - - - - -
25.09.2018 18:00:00 - - - - - - -
25.09.2018 17:00:00 13,3 3,4 25 14 WNW 1034,6 65
25.09.2018 16:00:00 - - - - - - -
25.09.2018 15:00:00 - - - - - - -
25.09.2018 14:00:00 13,2 3,8 22 12 WNW 1035,1 65
25.09.2018 13:00:00 - - - - - - -
25.09.2018 12:00:00 - - - - - - -
25.09.2018 11:00:00 11,9 5,5 32 18 NW 1034,1 50
25.09.2018 10:00:00 - - - - - - -
25.09.2018 09:00:00 - - - - - - -
25.09.2018 08:00:00 10,4 6,2 36 19 WNW 1031,8 40
25.09.2018 07:00:00 - - - - - - -
25.09.2018 06:00:00 - - - - - - -
25.09.2018 05:00:00 11,0 3,8 32 18 NW 1029,8 40
25.09.2018 04:00:00 - - - - - - -
25.09.2018 03:00:00 - - - - - - -
25.09.2018 02:00:00 10,4 5,2 18 10 NW 1028,5 65
25.09.2018 01:00:00 - - - - - - -
25.09.2018 00:00:00 - - - - - - -
24.09.2018 23:00:00 11,2 3,7 32 18 NW 1026,3 82
24.09.2018 22:00:00 - - - - - - -
24.09.2018 21:00:00 - - - - - - -
24.09.2018 20:00:00 11,3 3,8 40 21 NW 1024,0 65
24.09.2018 19:00:00 - - - - - - -
24.09.2018 18:00:00 - - - - - - -
24.09.2018 17:00:00 11,6 4,6 43 23 NW 1022,1 55
24.09.2018 16:00:00 - - - - - - -
24.09.2018 15:00:00 - - - - - - -
24.09.2018 14:00:00 9,6 5,0 11 6 WNW 1020,9 45
24.09.2018 13:00:00 - - - - - - -
24.09.2018 12:00:00 - - - - - - -
24.09.2018 11:00:00 10,0 4,6 54 29 NW 1018,9 45
24.09.2018 10:00:00 - - - - - - -
24.09.2018 09:00:00 - - - - - - -
24.09.2018 08:00:00 8,4 4,8 36 19 NNW 1015,4 30
24.09.2018 07:00:00 - - - - - - -
24.09.2018 06:00:00 - - - - - - -
24.09.2018 05:00:00 9,1 5,5 43 23 NNW 1012,6 30
24.09.2018 04:00:00 - - - - - - -
24.09.2018 03:00:00 - - - - - - -
24.09.2018 02:00:00 11,7 7,2 47 25 WNW 1009,6 50
24.09.2018 01:00:00 - - - - - - -
24.09.2018 00:00:00 - - - - - - -
23.09.2018 23:00:00 11,9 6,8 43 23 NW 1008,2 50
23.09.2018 22:00:00 - - - - - - -
23.09.2018 21:00:00 - - - - - - -
23.09.2018 20:00:00 12,5 6,1 32 18 WNW 1007,0 82
23.09.2018 19:00:00 - - - - - - -
23.09.2018 18:00:00 - - - - - - -
23.09.2018 17:00:00 13,3 5,7 29 16 WNW 1007,0 35
23.09.2018 16:00:00 - - - - - - -
23.09.2018 15:00:00 - - - - - - -
23.09.2018 14:00:00 14,3 6,9 29 16 WNW 1008,7 40
23.09.2018 13:00:00 - - - - - - -
23.09.2018 12:00:00 - - - - - - -
23.09.2018 11:00:00 12,5 6,5 40 21 WNW 1010,1 30
23.09.2018 10:00:00 - - - - - - -
23.09.2018 09:00:00 - - - - - - -
23.09.2018 08:00:00 11,7 8,7 40 21 W 1009,6 35
23.09.2018 07:00:00 - - - - - - -
23.09.2018 06:00:00 - - - - - - -
23.09.2018 05:00:00 11,8 8,6 40 21 W 1009,8 35
23.09.2018 04:00:00 - - - - - - -
23.09.2018 03:00:00 - - - - - - -
23.09.2018 02:00:00 12,2 8,1 43 23 W 1010,2 35
23.09.2018 01:00:00 - - - - - - -
23.09.2018 00:00:00 - - - - - - -
22.09.2018 23:00:00 12,8 8,1 50 27 W 1009,7 30
22.09.2018 22:00:00 - - - - - - -
22.09.2018 21:00:00 - - - - - - -
22.09.2018 20:00:00 13,3 7,5 47 25 W 1009,8 30
22.09.2018 19:00:00 - - - - - - -
22.09.2018 18:00:00 - - - - - - -
22.09.2018 17:00:00 14,9 7,2 40 21 W 1009,8 40
22.09.2018 16:00:00 - - - - - - -
22.09.2018 15:00:00 - - - - - - -
22.09.2018 14:00:00 14,0 8,2 43 23 W 1009,7 55
22.09.2018 13:00:00 - - - - - - -
22.09.2018 12:00:00 - - - - - - -
22.09.2018 11:00:00 14,5 7,3 43 23 WZW 1010,1 28
22.09.2018 10:00:00 - - - - - - -
22.09.2018 09:00:00 - - - - - - -
22.09.2018 08:00:00 12,7 8,0 47 25 W 1008,4 22
22.09.2018 07:00:00 - - - - - - -
22.09.2018 06:00:00 - - - - - - -
22.09.2018 05:00:00 12,4 8,7 50 27 WZW 1006,2 35
22.09.2018 04:00:00 - - - - - - -
22.09.2018 03:00:00 - - - - - - -
22.09.2018 02:00:00 12,6 8,7 50 27 WZW 1004,1 35
22.09.2018 01:00:00 - - - - - - -
22.09.2018 00:00:00 - - - - - - -
21.09.2018 23:00:00 14,0 8,8 58 31 WZW 1002,5 30
21.09.2018 22:00:00 - - - - - - -
21.09.2018 21:00:00 - - - - - - -
21.09.2018 20:00:00 13,2 9,5 54 29 W 1002,0 15
21.09.2018 19:00:00 - - - - - - -
21.09.2018 18:00:00 - - - - - - -
21.09.2018 17:00:00 14,8 11,8 36 19 WZW 1000,4 18
21.09.2018 16:00:00 - - - - - - -
21.09.2018 15:00:00 - - - - - - -
21.09.2018 14:00:00 21,9 14,5 47 25 ZZW 997,8 20
21.09.2018 13:00:00 - - - - - - -
21.09.2018 12:00:00 - - - - - - -
21.09.2018 11:00:00 20,3 14,6 40 21 Z 999,7 21
21.09.2018 10:00:00 - - - - - - -
21.09.2018 09:00:00 - - - - - - -
21.09.2018 08:00:00 18,3 14,8 36 19 Z 1002,6 24
21.09.2018 07:00:00 - - - - - - -
21.09.2018 06:00:00 - - - - - - -
21.09.2018 05:00:00 17,9 15,3 29 16 ZZO 1005,9 23
21.09.2018 04:00:00 - - - - - - -
21.09.2018 03:00:00 - - - - - - -
21.09.2018 02:00:00 17,5 15,7 22 12 Z 1008,8 25
21.09.2018 01:00:00 - - - - - - -
21.09.2018 00:00:00 - - - - - - -
20.09.2018 23:00:00 17,9 16,4 18 10 Z 1011,1 17
20.09.2018 22:00:00 - - - - - - -
20.09.2018 21:00:00 - - - - - - -
20.09.2018 20:00:00 18,7 15,6 7 4 ZW 1012,1 15
20.09.2018 19:00:00 - - - - - - -
20.09.2018 18:00:00 - - - - - - -
20.09.2018 17:00:00 19,5 16,2 14 8 ZZW 1013,0 25
20.09.2018 16:00:00 - - - - - - -
20.09.2018 15:00:00 - - - - - - -
20.09.2018 14:00:00 20,0 15,4 29 16 ZW 1013,5 22
20.09.2018 13:00:00 - - - - - - -
20.09.2018 12:00:00 - - - - - - -
20.09.2018 11:00:00 18,9 15,4 29 16 ZZW 1013,9 25

tt = temperatuur
td = dauwpunt
ff = windsnelheid
dd = windrichting
ppp = luchtdruk
vv = zicht

Weerstations in de omgeving